DW2633 Weather Reports


time (UTC)temp
F
wind
direction
speed
knots
gust
knots
rain 1hr
in
rain 24hr
in
rain mn
in
humidity
%
barometer
mb
20260504044535 46 242 5.2 0.0 0.00 0.00 0.00 77 1009.0
20260504044035 46 229 6.1 0.0 0.00 0.00 0.00 76 1009.0
20260504043535 46 238 7.8 0.0 0.00 0.00 0.00 78 1009.0
20260504043040 46 233 7.0 0.0 0.00 0.00 0.00 77 1009.0
20260504042532 47 249 7.8 0.0 0.00 0.00 0.00 77 1009.0
20260504042032 47 223 9.6 0.0 0.00 0.00 0.00 78 1008.9
20260504041532 47 248 11.3 0.0 0.00 0.00 0.00 78 1009.1
20260504041030 47 247 13.0 0.0 0.00 0.00 0.00 78 1009.2
20260504040529 47 257 14.8 0.0 0.00 0.00 0.00 78 1009.3
20260504040028 47 258 15.6 0.0 0.00 0.00 0.00 78 1009.3
20260504035529 47 252 15.6 0.0 0.00 0.00 0.00 77 1009.4
20260504035028 47 252 15.6 0.0 0.00 0.00 0.00 76 1009.4
20260504034528 47 251 14.8 0.0 0.00 0.00 0.00 76 1009.4
20260504034027 47 267 13.0 0.0 0.00 0.00 0.00 76 1009.5
20260504033527 48 270 13.0 0.0 0.00 0.00 0.00 73 1009.4
20260504033027 48 281 13.0 0.0 0.00 0.00 0.00 73 1009.4
20260504032527 47 289 11.3 0.0 0.00 0.00 0.00 73 1009.5
20260504032027 47 278 9.6 0.0 0.00 0.00 0.00 72 1009.4
20260504031528 47 290 8.7 0.0 0.00 0.00 0.00 72 1009.4
20260504031026 47 282 7.8 0.0 0.00 0.00 0.00 71 1009.2
20260504030526 47 282 7.0 0.0 0.00 0.00 0.00 70 1009.1
20260504030027 47 298 5.2 0.0 0.00 0.00 0.00 68 1009.2
20260504025526 47 311 4.3 0.0 0.00 0.00 0.00 68 1009.1
20260504025027 47 355 5.2 0.0 0.00 0.00 0.00 71 1009.2
20260504024525 47 9 5.2 0.0 0.00 0.00 0.00 67 1009.2
20260504024024 47 346 5.2 0.0 0.00 0.00 0.00 67 1009.2
20260504023526 47 12 5.2 0.0 0.00 0.00 0.00 70 1009.1
20260504023025 47 360 6.1 0.0 0.00 0.00 0.00 68 1009.2
20260504022525 47 355 7.0 0.0 0.00 0.00 0.00 68 1009.1
20260504022025 48 325 7.0 0.0 0.00 0.00 0.00 67 1009.1
20260504021524 48 337 7.0 0.0 0.00 0.00 0.00 68 1009.2
20260504021024 47 355 7.8 0.0 0.00 0.00 0.00 65 1009.2
20260504020525 48 326 8.7 0.0 0.00 0.00 0.00 67 1009.2
20260504020024 48 325 8.7 0.0 0.00 0.00 0.00 67 1009.3
20260504015524 48 322 8.7 0.0 0.00 0.00 0.00 66 1009.3
20260504015024 48 333 10.4 0.0 0.00 0.00 0.00 67 1009.3
20260504014533 48 303 13.0 0.0 0.00 0.00 0.00 66 1009.3
20260504014023 48 302 12.2 0.0 0.00 0.00 0.00 67 1009.3
20260504013522 48 299 8.7 0.0 0.00 0.00 0.00 64 1009.4
20260504013034 48 309 7.8 0.0 0.00 0.00 0.00 63 1009.3
20260504012522 48 321 7.8 0.0 0.00 0.00 0.00 63 1009.3
20260504012022 48 311 9.6 0.0 0.00 0.00 0.00 60 1009.3
20260504011522 49 294 11.3 0.0 0.00 0.00 0.00 63 1009.3
20260504011021 48 295 13.9 0.0 0.00 0.00 0.00 61 1009.3
20260504010521 48 286 12.2 0.0 0.00 0.00 0.00 63 1009.1
20260504010021 48 296 8.7 0.0 0.00 0.00 0.00 63 1009.1
20260504005521 48 286 9.6 0.0 0.00 0.00 0.00 61 1009.0
20260504005021 48 289 8.7 0.0 0.00 0.00 0.00 61 1009.0
20260504004522 48 284 8.7 0.0 0.00 0.00 0.00 60 1008.9
20260504004021 48 287 9.6 0.0 0.00 0.00 0.00 58 1008.8
20260504003522 49 286 10.4 0.0 0.00 0.00 0.00 54 1008.8
20260504003020 49 308 11.3 0.0 0.00 0.00 0.00 55 1008.8
20260504002521 49 294 13.0 0.0 0.00 0.00 0.00 59 1008.7
20260504002020 49 286 14.8 0.0 0.00 0.00 0.00 56 1008.7
20260504001521 49 292 15.6 0.0 0.00 0.00 0.00 58 1008.7
20260504001020 49 287 16.5 0.0 0.00 0.00 0.00 57 1008.6
20260504000519 49 288 16.5 0.0 0.00 0.00 0.00 58 1008.5
20260504000020 50 281 15.6 0.0 0.00 0.00 0.00 54 1008.5
20260503235521 50 291 14.8 0.0 0.00 0.00 0.00 53 1008.5
20260503235019 50 298 16.5 0.0 0.00 0.00 0.00 53 1008.5
20260503234521 50 288 18.2 0.0 0.00 0.00 0.00 53 1008.4
20260503234022 50 360 17.4 0.0 0.00 0.00 0.00 52 1008.3
20260503233519 50 300 16.5 0.0 0.00 0.00 0.00 52 1008.4
20260503233021 51 296 17.4 0.0 0.00 0.00 0.00 53 1008.2
20260503232519 51 301 19.1 0.0 0.00 0.00 0.00 50 1008.1
20260503232021 51 288 20.0 0.0 0.00 0.00 0.00 52 1008.0
20260503231520 51 295 20.9 0.0 0.00 0.00 0.00 53 1007.9
20260503231019 51 360 21.7 0.0 0.00 0.00 0.00 53 1007.8
20260503230520 51 360 20.9 0.0 0.00 0.00 0.00 51 1007.7
20260503230017 51 280 17.4 0.0 0.00 0.00 0.00 52 1007.6
20260503225517 51 296 14.8 0.0 0.00 0.00 0.00 50 1007.6
20260503225018 51 319 13.9 0.0 0.00 0.00 0.00 52 1007.5
20260503224517 51 283 15.6 0.0 0.00 0.00 0.00 52 1007.5
20260503224019 51 269 15.6 0.0 0.00 0.00 0.00 51 1007.5
20260503223516 51 295 16.5 0.0 0.00 0.00 0.00 49 1007.5
20260503223016 51 298 17.4 0.0 0.00 0.00 0.00 48 1007.4
20260503222515 51 298 17.4 0.0 0.00 0.00 0.00 53 1007.5
20260503222118 51 311 17.4 0.0 0.00 0.00 0.00 50 1007.4
20260503221516 51 318 19.1 0.0 0.00 0.00 0.00 48 1007.5
20260503221018 51 325 20.0 0.0 0.00 0.00 0.00 48 1007.5
20260503220518 52 315 20.9 0.0 0.00 0.00 0.00 49 1007.5
20260503220015 52 302 22.6 0.0 0.00 0.00 0.00 49 1007.5
20260503215515 52 307 22.6 0.0 0.00 0.00 0.00 48 1007.6
20260503215016 52 311 22.6 0.0 0.00 0.00 0.00 47 1007.5
20260503214517 52 308 20.0 0.0 0.00 0.00 0.00 44 1007.3
20260503214013 52 305 18.2 0.0 0.00 0.00 0.00 47 1007.3
20260503213513 53 296 19.1 0.0 0.00 0.00 0.00 47 1007.2
20260503213013 53 298 22.6 0.0 0.00 0.00 0.00 44 1007.1
20260503212513 53 281 23.5 0.0 0.00 0.00 0.00 47 1007.1
20260503212013 52 281 24.3 0.0 0.00 0.00 0.00 47 1007.0
20260503211513 53 276 24.3 0.0 0.00 0.00 0.00 45 1007.1
20260503211012 53 360 21.7 0.0 0.00 0.00 0.00 49 1006.9
20260503210512 53 277 19.1 0.0 0.00 0.00 0.00 46 1006.9
20260503210011 53 282 18.2 0.0 0.00 0.00 0.00 46 1007.0
20260503205511 53 285 16.5 0.0 0.00 0.00 0.00 45 1007.0
20260503205011 53 291 16.5 0.0 0.00 0.00 0.00 50 1007.2
20260503204509 53 270 15.6 0.0 0.00 0.00 0.00 49 1007.2
20260503204008 53 283 13.9 0.0 0.00 0.00 0.00 50 1007.3
20260503203511 52 296 16.5 0.0 0.00 0.00 0.00 48 1007.4
20260503203022 52 300 17.4 0.0 0.00 0.00 0.00 44 1007.3
20260503202508 53 300 14.8 0.0 0.00 0.00 0.00 50 1007.3
20260503202006 52 286 13.9 0.0 0.00 0.00 0.00 48 1007.3
20260503201506 52 293 13.0 0.0 0.00 0.00 0.00 46 1007.3
20260503201009 52 288 11.3 0.0 0.00 0.00 0.00 49 1007.3
20260503200504 51 285 9.6 0.0 0.00 0.00 0.00 45 1007.4
20260503200004 51 295 8.7 0.0 0.00 0.00 0.00 43 1007.5
20260503195503 51 305 9.6 0.0 0.00 0.00 0.00 44 1007.5
20260503195002 51 304 12.2 0.0 0.00 0.00 0.00 47 1007.5
20260503194501 51 290 15.6 0.0 0.00 0.00 0.00 49 1007.7
20260503194101 52 279 14.8 0.0 0.00 0.00 0.00 51 1007.8
20260503193559 51 279 13.9 0.0 0.00 0.00 0.00 54 1007.9
20260503193058 51 285 13.9 0.0 0.00 0.00 0.00 51 1008.1
20260503192556 50 300 14.8 0.0 0.00 0.00 0.00 54 1008.1
20260503192056 50 306 16.5 0.0 0.00 0.00 0.00 50 1008.3
20260503191557 50 287 13.9 0.0 0.00 0.00 0.00 52 1008.2
20260503191055 50 259 13.9 0.0 0.00 0.00 0.00 56 1008.4
20260503190553 50 305 13.9 0.0 0.00 0.00 0.00 47 1008.6
20260503190106 50 297 13.0 0.0 0.00 0.00 0.00 52 1008.6
20260503185553 50 272 13.9 0.0 0.00 0.00 0.00 55 1008.6
20260503185053 50 292 16.5 0.0 0.00 0.00 0.00 50 1008.6
20260503184552 50 284 16.5 0.0 0.00 0.00 0.00 55 1008.7
20260503184050 50 290 15.6 0.0 0.00 0.00 0.00 55 1008.7
20260503183548 50 271 13.9 0.0 0.00 0.00 0.00 58 1008.7
20260503183047 49 281 13.0 0.0 0.00 0.00 0.00 53 1008.7
20260503182548 48 272 14.8 0.0 0.00 0.00 0.00 52 1008.8
20260503182047 49 301 16.5 0.0 0.00 0.00 0.00 53 1008.8
20260503181554 48 302 15.6 0.0 0.00 0.00 0.00 55 1009.0
20260503181045 48 300 13.9 0.0 0.00 0.00 0.00 57 1008.9
20260503180544 48 288 13.9 0.0 0.00 0.00 0.00 51 1008.9
20260503180051 48 288 13.9 0.0 0.00 0.00 0.00 59 1009.0
20260503175544 48 325 13.9 0.0 0.00 0.00 0.00 59 1009.0
20260503175043 48 290 11.3 0.0 0.00 0.00 0.00 56 1009.0
20260503174542 48 298 12.2 0.0 0.00 0.00 0.00 51 1009.0
20260503174042 48 293 15.6 0.0 0.00 0.00 0.00 51 1009.1
20260503173541 47 283 13.9 0.0 0.00 0.00 0.00 56 1009.1
20260503173040 47 294 8.7 0.0 0.00 0.00 0.00 58 1009.0
20260503172539 47 300 7.8 0.0 0.00 0.00 0.00 52 1009.1
20260503172039 47 317 8.7 0.0 0.00 0.00 0.00 55 1009.2
20260503171538 47 309 11.3 0.0 0.00 0.00 0.00 51 1009.3
20260503171038 47 288 13.9 0.0 0.00 0.00 0.00 51 1009.3
20260503170538 47 315 13.9 0.0 0.00 0.00 0.00 61 1009.3
20260503150529 45 355 11.3 0.0 0.00 0.00 0.00 57 1010.0
20260503131021 44 344 11.3 0.0 0.00 0.00 0.00 64 1010.3
20260503130520 44 302 11.3 0.0 0.00 0.00 0.00 67 1010.2
20260503110509 40 14 5.2 0.0 0.00 0.00 0.00 73 1010.0
20260503090501 38 95 1.7 0.0 0.00 0.00 0.00 78 1009.7
20260503081600 38 119 1.7 0.0 0.00 0.00 0.00 77 1009.9
20260503081055 38 119 2.6 0.0 0.00 0.00 0.00 77 1009.9
20260503080554 38 123 2.6 0.0 0.00 0.00 0.00 78 1010.0
20260503072552 39 326 0.9 0.0 0.00 0.00 0.00 75 1010.1
20260503072052 39 93 1.7 0.0 0.00 0.00 0.00 75 1010.1
20260503071551 39 68 2.6 0.0 0.00 0.00 0.00 75 1010.2
20260503071051 39 99 2.6 0.0 0.00 0.00 0.00 75 1010.2
20260503070553 39 44 2.6 0.0 0.00 0.00 0.00 76 1010.2
20260503060109 39 319 5.2 0.0 0.00 0.00 0.00 73 1010.6
20260503055044 39 336 6.1 0.0 0.00 0.00 0.00 73 1010.6
20260503054559 39 322 6.1 0.0 0.00 0.00 0.00 73 1010.6
20260503054043 40 333 6.1 0.0 0.00 0.00 0.00 75 1010.7
20260503053541 40 355 6.1 0.0 0.00 0.00 0.00 72 1010.7
20260503053043 40 335 7.0 0.0 0.00 0.00 0.00 71 1010.8
20260503052544 40 313 7.8 0.0 0.00 0.00 0.00 72 1010.8
20260503052042 40 292 7.8 0.0 0.00 0.00 0.00 71 1010.7
20260503051538 40 296 8.7 0.0 0.00 0.00 0.00 71 1010.8
20260503051037 40 321 8.7 0.0 0.00 0.00 0.00 71 1010.9
20260503050536 40 304 9.6 0.0 0.00 0.00 0.00 72 1010.9
20260503050038 41 316 9.6 0.0 0.00 0.00 0.00 71 1010.9
20260503045535 41 315 9.6 0.0 0.00 0.00 0.00 70 1010.9
20260503045032 41 299 9.6 0.0 0.00 0.00 0.00 68 1011.0